613  
ASUS44 KSHV 211710  
RWRSHV  
 
WEATHER ROUNDUP FOR THE FOUR STATE AREA  
NATIONAL WEATHER SERVICE SHREVEPORT LA  
1200 PM CDT MON AUG 21 2017  
 
NOTE: "FAIR" INDICATES FEW OR NO CLOUDS BELOW 12000 FEET  
WITH NO SIGNIFICANT WEATHER AND/OR S TO VISIBILITY
.  
 
!LAZ001-LAZ014-TXZ097-211800  
SHREVEPORT...MONROE...TEXARKANA RADIOS  
 
CITY SKY/WX TMP DP RH WIND PRES REMARKS
 
SHREVEPORT MOSUNNY 91 75 59 SW3 30.11F HX 101  
MONROE PTSUNNY 93 74 53 VRB3 30.12F HX 103  
NATCHITOCHES MOSUNNY 92 75 56 NE3 30.12S HX 103  
TEXARKANA PTSUNNY 87 76 69 S5 30.13S  

 
 
!LAZ001-LAZ014-TXZ097-211800  
OTHER LOCATIONS...  
 
CITY SKY/WX TMP DP RH WIND PRES REMARKS
 
DOWNTOWN SHV SUNNY 92 74 55 E5 30.11F HX 101  
BOSSIER CITY SUNNY 91 73 56 SE7 30.11F HX 99  
RUSTON MOSUNNY 89 73 57 CALM 30.16S  
LITTLE ROCK MOSUNNY 90 75 61 SW9 30.12F HX 100  
EL DORADO SUNNY 89 74 60 W3 30.13F HX 98  
JACKSON SUNNY 93 72 50 E7 30.14S HX 101  
NEW ORLEANS PTSUNNY 89 76 65 NE8 30.12F HX 100  
HOUSTON MOSUNNY 90 75 61 E7 30.07F HX 100  
LUFKIN SUNNY 89 73 59 SE8 30.10F  
TYLER MOSUNNY 86 75 69 S6 30.12S  
DAL FT WORTH MOSUNNY 93 70 46 S7 30.07F HX 99  

 
 
!TXZ136-TXZ165-211800  
TYLER...LUFKIN RADIOS  
 
CITY SKY/WX TMP DP RH WIND PRES REMARKS
 
TYLER MOSUNNY 86 75 69 S6 30.12S  
GILMER MOSUNNY 87 74 64 SE7 30.12F  
LONGVIEW MOSUNNY 90 76 63 VRB3 30.11F HX 101  
LUFKIN SUNNY 89 73 59 SE8 30.10F  

 
 
!TXZ136-TXZ165-211800  
OTHER LOCATIONS...  
 
CITY SKY/WX TMP DP RH WIND PRES REMARKS
 
NACOGDOCHES SUNNY 90 75 61 E7 30.11F HX 100  
BEAUMONT MOSUNNY 88 73 61 E12 30.08S  
HOUSTON MOSUNNY 90 75 61 E7 30.07F HX 100  
COLLEGE STN MOSUNNY 91 73 55 VRB7 30.08F HX 99  
AUSTIN MOSUNNY 91 71 51 S8 30.08F  
DAL FT WORTH MOSUNNY 93 70 46 S7 30.07F HX 99  
TEXARKANA PTSUNNY 87 76 69 S5 30.13S  
SHREVEPORT MOSUNNY 91 75 59 SW3 30.11F HX 101  
FORT POLK MOSUNNY 89 73 58 E6 30.11S  
LAKE CHARLES PTSUNNY 91 74 57 MISG 30.10R HX 100  

 
 
 
CLICK HERE TO GO TO PREVIOUS BULLETINS.

The Nexlab LA Page
The Nexlab TX Page
The Nexlab AR Page
The Nexlab OK Page Main Text Page